• MPC Preparation (Info)

  • MPEC 2016-N35 : 2016 NB1

    The following Minor Planet Electronic Circular may be linked-to from your own Web pages, but must not otherwise be redistributed electronically.

    A form allowing access to any MPEC is at the bottom of this page.


    Read MPEC 2016-N34 Read MPEC 2016-N36


    M.P.E.C. 2016-N35                                Issued 2016 July 7, 02:52 UT
    
         The Minor Planet Electronic Circulars contain information on unusual
             minor planets and routine data on comets.  They are published
        on behalf of Division F of the International Astronomical Union by the
              Minor Planet Center, Smithsonian Astrophysical Observatory,
                              Cambridge, MA 02138, U.S.A.
    
                 Prepared using the Tamkin Foundation Computer Network
    
                                  MPC@CFA.HARVARD.EDU
                URL https://www.minorplanetcenter.net/    ISSN 1523-6714
    
                                       2016 NB1
    
    Observations:
         K16N01B* C2016 07 05.20673 18 23 44.38 -04 06 28.6          18.8 VqEN035G96
         K16N01B  C2016 07 05.21551 18 23 36.50 -04 07 31.6          18.9 VqEN035G96
         K16N01B  C2016 07 05.25185 18 23 03.79 -04 11 51.9          18.4 VqEN035G96
         K16N01B  C2016 07 05.25693 18 22 59.22 -04 12 28.0          18.7 VqEN035G96
         K16N01B  C2016 07 05.26202 18 22 54.72 -04 13 03.3                qEN035G96
         K16N01B  C2016 07 05.26712 18 22 50.02 -04 13 39.6          18.0 VqEN035G96
         K16N01B KC2016 07 05.33069 18 21 51.35 -04 21 24.2          18.9 RqEN035H36
         K16N01B KC2016 07 05.33287 18 21 49.46 -04 21 39.7          19.2 RqEN035H36
         K16N01B KC2016 07 05.33984 18 21 43.20 -04 22 28.7          19.1 RqEN035H36
         K16N01B KC2016 07 05.43170 18 20 32.00 -04 30 27.6          19.6 RtEN035474
         K16N01B KC2016 07 05.43351 18 20 30.44 -04 30 40.3          18.8 RtEN035474
         K16N01B KC2016 07 05.43442 18 20 29.64 -04 30 46.9          18.4 RtEN035474
         K16N01B KC2016 07 05.43532 18 20 28.85 -04 30 53.3          18.7 RtEN035474
         K16N01B KC2016 07 05.43623 18 20 28.04 -04 30 59.8          18.9 RtEN035474
         K16N01B KC2016 07 05.51853 18 19 17.73 -04 40 58.9          19.0 VqEN035E23
         K16N01B KC2016 07 05.52837 18 19 09.00 -04 42 08.7          19.5 VqEN035E23
         K16N01B KC2016 07 05.58872 18 18 15.52 -04 49 12.8          19.1 VqEN035E23
         K16N01B KC2016 07 05.59798 18 18 07.32 -04 50 17.2          19.3 VqEN035E23
         K16N01B KC2016 07 05.60724 18 17 59.18 -04 51 21.9          19.2 VqEN035E23
         K16N01B KC2016 07 05.95175 18 13 16.43 -05 33 55.6                qEN035J95
         K16N01B KC2016 07 05.95715118 13 10.90 -05 34 25.2          19.7  qEN035B04
         K16N01B KC2016 07 05.95935 18 13 09.87 -05 34 47.5                qEN035J95
         K16N01B KC2016 07 05.96475018 13 04.38 -05 35 16.4          20.2  qEN035B04
         K16N01B KC2016 07 05.96767 18 13 02.80 -05 35 43.8          19.0 RqEN035J95
         K16N01B KC2016 07 05.96871118 13 00.97 -05 35 43.4          20.5  qEN035B04
         K16N01B KC2016 07 06.00917 18 12 26.20 -05 40 19.2                qEN035204
         K16N01B KC2016 07 06.01745 18 12 19.15 -05 41 15.4                qEN035204
         K16N01B KC2016 07 06.02550 18 12 12.25 -05 42 08.8          19.9 RqEN035204
         K16N01B  C2016 07 06.31129 18 08 21.72 -06 13 55.3          18.7 VqEN035G96
         K16N01B  C2016 07 06.31851 18 08 15.59 -06 14 43.1                qEN035G96
         K16N01B  C2016 07 06.32571 18 08 09.48 -06 15 30.7          18.4 VqEN035G96
         K16N01B KC2016 07 06.53325 18 05 24.58 -06 35 48.0          18.8 RtEN035474
         K16N01B KC2016 07 06.53379 18 05 24.13 -06 35 51.4          18.9 RtEN035474
         K16N01B KC2016 07 06.53434 18 05 23.67 -06 35 55.1          18.6 RtEN035474
         K16N01B KC2016 07 06.53488 18 05 23.22 -06 35 58.8          18.5 RtEN035474
         K16N01B KC2016 07 06.53543 18 05 22.78 -06 36 02.0          18.7 RtEN035474
         K16N01B KC2016 07 06.53597 18 05 22.31 -06 36 05.7          18.9 RtEN035474
         K16N01B KC2016 07 06.88019 18 00 55.78 -07 16 13.0          18.3 RoEN035K51
         K16N01B KC2016 07 06.88106 18 00 55.06 -07 16 19.4          18.8 RoEN035K51
         K16N01B KC2016 07 06.88193 18 00 54.39 -07 16 24.9          18.7 RoEN035K51
         K16N01B KC2016 07 06.93642 18 00 10.33 -07 22 13.2          18.6 RqEN035104
         K16N01B KC2016 07 06.93935 18 00 07.88 -07 22 29.1          19.1 RqEN035104
         K16N01B KC2016 07 06.98261 17 59 40.86 -07 24 29.9          19.3 RuEN035821
         K16N01B KC2016 07 06.98939 17 59 35.43 -07 25 13.4          19.2 RuEN035821
         K16N01B KC2016 07 06.99733 17 59 29.11 -07 26 04.7          19.3 RuEN035821
    
    Observer details:
    104 San Marcello Pistoiese.  Observers P. Bacci, M. Maestripieri.  Measurers
        P. Bacci, L. Tesi, G. Fagioli.  0.60-m f/4 reflector + CCD.
    204 Schiaparelli Observatory.  Observer L. Buzzi.  0.60-m f/4.64 reflector
        + CCD.
    474 Mount John Observatory, Lake Tekapo.  Observers A. C. Gilmore,
        P. M. Kilmartin.  Measurer P. M. Kilmartin.  1.0-m f/7.7 reflector + CCD.
    821 Cordoba-Bosque Alegre.  Observers R. Artola, C. Colazo, R. Melia.
        Measurer R. Artola.  1.54-m f/4.8 reflector + CCD.
    B04 OAVdA, Saint-Barthelemy.  Observer A. Carbognani.  0.81-m f/7.9 reflector
        + CCD.
    E23 Arcadia.  Observer A. Hidas.  0.35-m f/1.9 reflector + CCD.
    G96 Mt. Lemmon Survey.  Observers R. A. Kowalski, D. C. Fuls.  Measurers
        E. J. Christensen, D. C. Fuls, A. R. Gibbs, A. D. Grauer, J. A. Johnson,
        R. A. Kowalski, S. M. Larson, G. J. Leonard, R. G. Matheny, R. L. Seaman,
        F. C. Shelly.  1.5-m reflector + 10K CCD.
    H36 Sandlot Observatory, Scranton.  Observer G. Hug.  0.56-m reflector + CCD.
    J95 Great Shefford.  Observer P. Birtwhistle.  0.40-m f/6.0 Schmidt-Cassegrain
        + CCD.
    K51 Osservatorio del Celado, Castello Tesino.  Observer R. Broccato.  Measurer
        M. Campestrin.  0.80-m f/4 reflector + CCD.
    
    Orbital elements:
    2016 NB1                                                 Earth MOID = 0.0472 AU
    Epoch 2016 July 31.0 TT = JDT 2457600.5                 MPC
    M 193.67376              (2000.0)            P               Q
    n   1.48141018     Peri.    0.74036     -0.40210746     -0.90933038
    a   0.7621126      Node   112.97466     +0.83944175     -0.41276078
    e   0.4355831      Incl.    6.66773     +0.36557781     -0.05240990
    P   0.67           H   23.8           G   0.15           U   8
    Residuals in seconds of arc
    160705 G96  0.0   0.4-    160705 E23  0.3+  0.5+    160706 G96  0.4-  0.3+
    160705 G96  0.1+  0.3-    160705 E23  0.5+  0.3-    160706 474  0.3+  0.1-
    160705 G96  0.0   0.2-    160705 E23  0.2+  0.0     160706 474  0.3+  0.0
    160705 G96  0.1+  0.1+    160705 E23  0.7+  0.0     160706 474  0.2+  0.1-
    160705 G96  1.4+  1.1+    160705 J95  0.3+  0.3-    160706 474  0.2+  0.2-
    160705 G96  0.2-  1.3+    160705 B04  0.2-  0.4-    160706 474  0.4+  0.2+
    160705 H36  0.6-  0.5-    160705 J95  0.6-  0.2-    160706 474  0.1+  0.0
    160705 H36  0.1+  0.6-    160705 B04  0.1-  0.3+    160706 K51  0.2-  1.0+
    160705 H36  1.1-  0.2-    160705 J95  0.1+  0.3+    160706 K51  0.4-  0.2+
    160705 474  0.7-  0.3-    160705 B04  0.2-  0.3+    160706 K51  0.2+  0.2+
    160705 474  0.1-  0.2-    160706 204  0.1+  0.2-    160706 104  1.0+  2.5-
    160705 474  0.1-  0.3-    160706 204  0.3+  0.2-    160706 104  0.1-  0.3+
    160705 474  0.0   0.3-    160706 204  0.3-  1.0+    160706 821  0.1-  0.4+
    160705 474  0.1-  0.4-    160706 G96  0.2-  0.2-    160706 821  0.5-  0.4+
    160705 E23  0.3+  0.9+    160706 G96  0.3-  0.0     160706 821  0.3-  0.1+
    
    Ephemeris:
    2016 NB1                 a,e,i = 0.76, 0.44, 7                   q = 0.4301
    Date    TT    R. A. (2000) Decl.     Delta      r     Elong.  Phase     V
    2016 06 07    23 34 58.1 +26 29 37   0.1287  0.9848    72.9    99.9    22.9
    ...
    2016 06 22    21 42 34.3 +19 58 38   0.07572 1.0461   111.2    64.9    20.6
    ...
    2016 06 30    19 45 21.0 +07 06 25   0.06221 1.0685   145.4    32.7    19.3
    ...
    2016 07 06    18 12 36.7 -05 37 31   0.06804 1.0807   159.3    19.5    19.1
    2016 07 07    17 59 22.2 -07 27 12   0.07035 1.0823   158.0    20.6    19.2
    2016 07 08    17 46 58.1 -09 08 46   0.07297 1.0838   156.1    22.3    19.4
    ...
    2016 07 14    16 49 40.8 -16 36 52   0.09363 1.0908   141.0    35.9    20.3
    ...
    2016 07 22    16 07 29.4 -21 50 00   0.1284  1.0941   124.6    49.8    21.4
    ...
    2016 08 06    15 38 07.6 -26 21 49   0.1987  1.0816   104.6    65.2    22.8
    
    A. U. Tomatic                (C) Copyright 2016 MPC           M.P.E.C. 2016-N35
    

    Read MPEC 2016-N34 Read MPEC 2016-N36


    MPEC number:

    Enter an MPEC number in one of the following forms:

    • 1997-B01 (the full form)
    • J97B01 (the packed version of the full form)
    • B01 (the abbreviated form)